This is the latest recevied weather packets stored in our database for station/object 9M2SAR-10. If no packets are shown the sender has not sent any weather packets the latest 10 day(s).
| Time | Temp. | Humidity | Pressure | Rain* | Wind** | Luminosity | Snow |
|---|---|---|---|---|---|---|---|
| 1777718786 | 30.56° C | 100% | 1007.1 hPa | - | - | - | - |
| 1777717886 | 31.11° C | 100% | 1006.9 hPa | - | - | - | - |
| 1777716986 | 31.11° C | 100% | 1006.7 hPa | - | - | - | - |
| 1777716086 | 31.67° C | 100% | 1006.4 hPa | - | - | - | - |
| 1777715185 | 31.67° C | 100% | 1006.5 hPa | - | - | - | - |
| 1777714285 | 31.67° C | 100% | 1006.4 hPa | - | - | - | - |
| 1777713385 | 31.67° C | 100% | 1006 hPa | - | - | - | - |
| 1777712485 | 32.22° C | 100% | 1005.7 hPa | - | - | - | - |
| 1777711585 | 32.22° C | 100% | 1006 hPa | - | - | - | - |
| 1777710685 | 32.78° C | 100% | 1005.8 hPa | - | - | - | - |
| 1777709785 | 33.89° C | 100% | 1006.3 hPa | - | - | - | - |
| 1777708885 | 34.44° C | 100% | 1006.7 hPa | - | - | - | - |
| 1777707985 | 35.56° C | 100% | 1007.3 hPa | - | - | - | - |
| 1777707085 | 33.89° C | 100% | 1007.1 hPa | - | - | - | - |
| 1777706185 | 34.44° C | 100% | 1007.6 hPa | - | - | - | - |
| 1777705284 | 34.44° C | 100% | 1007.7 hPa | - | - | - | - |
| 1777704384 | 35° C | 100% | 1007.7 hPa | - | - | - | - |
| 1777703484 | 35° C | 100% | 1008.4 hPa | - | - | - | - |
| 1777702584 | 35° C | 100% | 1008.8 hPa | - | - | - | - |
| 1777701685 | 35.56° C | 100% | 1009 hPa | - | - | - | - |
| 1777700784 | 35.56° C | 100% | 1009.2 hPa | - | - | - | - |
| 1777699884 | 35° C | 100% | 1009.5 hPa | - | - | - | - |
| 1777698984 | 35° C | 100% | 1009.8 hPa | - | - | - | - |
| 1777698084 | 35° C | 100% | 1009.9 hPa | - | - | - | - |
| 1777697184 | 34.44° C | 100% | 1009.8 hPa | - | - | - | - |
* Rain since midnight (hover to see other rain measurements)
** Current wind speed in m/s (hover to see current wind gust speed)